Weather in Uritskoye

Russia / Sakha (Yakutia) Republic     60°33′32″N   122°23′23″E
temp.,
°C
wind,
m/s
gust,
m/s
humid.,
%
clouds,
%
prec.,
mm/h
press.,
hPa
HPBL,
m
13 june, sun
sun1300:00+5ssw24785 0.0 101478
03:00+4ssw23965 0.0 101450
06:00+8wsw25786 0.0 1014222
09:00+15w33465 0.0 10121415
12:00+15sw333699 0.0 10112062
15:00+18ssw332839 0.0 10092628
18:00+18s333020 0.0 10082363
21:00+13sse375517 0.0 1008180
14 june, mon
mon1400:00+8sse227565 0.0 100931
03:00+6se228134 0.0 100913
06:00+9e1268100 0.0 100798
09:00+15e3546100 0.0 10051108
12:00+17ese3535100 0.0 10041845
15:00+16e3539100 0.1 10041904
18:00+17se2542100 0.0 10031962
21:00+10wnw1183100 0.4 100419
15 june, tue
tue1500:00+10nw1184100 0.2 100415
03:00+9nw1183100 0.2 100418
06:00+10n1176100 0.0 100480
09:00+14ne355886 0.0 10041078
12:00+17e2352100 0.3 10041299
15:00+17se335194 0.6 1004960
18:00+16sse3361100 0.2 1004782
21:00+13w2282100 0.6 100545
16 june, wed
wed1600:00+9wnw1195100 0.2 100611
03:00+8w1196100 0.2 100611
06:00+11n129587 0.4 100792
09:00+16n245330 0.6 1006871
12:00+20n342986 0.0 10052897
15:00+15n3559100 0.2 1007713
18:00+17nnw334546 0.1 10061689
21:00+14wnw2368100 0.1 100755
17 june, thu
thu1700:00+8w11915 0.0 100810
03:00+7w11934 0.0 100910
06:00+11w11775 0.0 1010111
09:00+17nnw22535 0.0 1009742
12:00+22nne233573 0.0 10082506
15:00+21ne2335100 0.0 10072087
18:00+22e2432100 0.0 10072419
21:00+16s2265100 0.0 100823